GW4987 Weather Reports


time (UTC)temp
F
wind
direction
speed
knots
gust
knots
rain 1hr
in
rain 24hr
in
rain mn
in
humidity
%
barometer
mb
20260503202012 71 211 8.7 20.0 0.00 0.00 0.00 25 1017.3
20260503201555 71 211 9.6 20.0 0.00 0.00 0.00 23 1017.0
20260503201055 73 176 15.6 19.1 0.00 0.00 0.00 21 1017.4
20260503200512 70 184 5.2 25.2 0.00 0.00 0.00 26 1017.1
20260503200013 71 176 10.4 20.9 0.00 0.00 0.00 24 1017.1
20260503195555 71 184 11.3 14.8 0.00 0.00 0.00 28 1017.4
20260503195013 72 172 12.2 19.1 0.00 0.00 0.00 26 1017.4
20260503194555 70 139 7.8 15.6 0.00 0.00 0.00 26 1017.7
20260503194055 72 196 8.7 15.6 0.00 0.00 0.00 23 1017.5
20260503193555 71 142 5.2 26.1 0.00 0.00 0.00 25 1017.6
20260503193013 72 152 7.0 14.8 0.00 0.00 0.00 27 1017.7
20260503192555 71 201 8.7 20.9 0.00 0.00 0.00 28 1017.6
20260503191013 71 143 4.3 24.3 0.00 0.00 0.00 26 1017.9
20260503190555 71 216 8.7 22.6 0.00 0.00 0.00 27 1017.9
20260503190055 71 129 14.8 18.2 0.00 0.00 0.00 28 1018.0
20260503185555 71 130 7.8 20.9 0.00 0.00 0.00 28 1017.8
20260503185055 71 129 11.3 22.6 0.00 0.00 0.00 28 1018.0
20260503184556 71 193 11.3 20.0 0.00 0.00 0.00 31 1017.9
20260503182513 71 153 7.0 11.3 0.00 0.00 0.00 31 1017.9
20260503182013 69 174 7.8 10.4 0.00 0.00 0.00 33 1018.0
20260503181555 69 116 7.8 10.4 0.00 0.00 0.00 34 1018.1
20260503175555 70 101 8.7 10.4 0.00 0.00 0.00 31 1018.0
20260503175013 71 123 10.4 15.6 0.00 0.00 0.00 32 1018.0
20260503174556 70 72 4.3 16.5 0.00 0.00 0.00 32 1018.0
20260503174056 70 92 6.1 15.6 0.00 0.00 0.00 34 1018.0
20260503173556 71 91 4.3 7.8 0.00 0.00 0.00 32 1018.1
20260503173012 70 139 3.5 14.8 0.00 0.00 0.00 33 1018.2
20260503172555 70 95 4.3 12.2 0.00 0.00 0.00 33 1018.1
20260503172056 69 127 8.7 19.1 0.00 0.00 0.00 35 1018.1
20260503171555 70 63 5.2 13.0 0.00 0.00 0.00 34 1018.0
20260503171056 69 135 5.2 15.6 0.00 0.00 0.00 34 1018.1
20260503170555 69 131 9.6 10.4 0.00 0.00 0.00 35 1018.4
20260503150512 66 127 4.3 5.2 0.00 0.00 0.00 39 1018.5
20260503131013 57 124 3.5 7.8 0.00 0.00 0.00 38 1018.1
20260503130555 56 112 4.3 7.8 0.00 0.00 0.00 38 1018.0
20260503081555 59 197 5.2 6.1 0.00 0.00 0.00 31 1018.9
20260503081014 59 205 4.3 5.2 0.00 0.00 0.00 32 1019.2
20260503080555 59 203 3.5 7.8 0.00 0.00 0.00 32 1018.7
20260503072555 58 209 5.2 5.2 0.00 0.00 0.00 34 1019.0
20260503072056 58 164 2.6 5.2 0.00 0.00 0.00 34 1019.3
20260503071555 58 188 5.2 6.1 0.00 0.00 0.00 34 1019.2
20260503071055 57 177 2.6 3.5 0.00 0.00 0.00 35 1019.2
20260503070556 57 148 0.0 3.5 0.00 0.00 0.00 35 1019.0
20260503053555 60 200 4.3 7.8 0.00 0.00 0.00 31 1019.0
20260503053055 61 191 2.6 9.6 0.00 0.00 0.00 31 1019.0
20260503052555 61 196 5.2 7.8 0.00 0.00 0.00 30 1019.3
20260503052014 62 153 2.6 7.0 0.00 0.00 0.00 30 1019.4
20260503051555 62 168 4.3 7.0 0.00 0.00 0.00 30 1019.3
20260503051056 61 218 8.7 9.6 0.00 0.00 0.00 30 1019.4
20260503050513 62 145 3.5 7.8 0.00 0.00 0.00 30 1019.4
20260503050055 62 180 4.3 7.0 0.00 0.00 0.00 30 1019.4
20260503045555 62 175 7.0 11.3 0.00 0.00 0.00 30 1019.2
20260503045014 62 273 5.2 14.8 0.00 0.00 0.00 30 1019.3
20260503044555 61 213 9.6 11.3 0.00 0.00 0.00 31 1019.0
20260503044056 62 240 7.0 13.0 0.00 0.00 0.00 30 1019.0
20260503042055 62 200 9.6 14.8 0.00 0.00 0.00 30 1018.9
20260503041514 62 215 4.3 12.2 0.00 0.00 0.00 30 1018.9
20260503035555 63 198 9.6 11.3 0.00 0.00 0.00 29 1018.8
20260503035055 62 223 4.3 7.8 0.00 0.00 0.00 30 1018.5
20260503034556 62 191 7.0 8.7 0.00 0.00 0.00 30 1018.5
20260503032514 63 221 3.5 12.2 0.00 0.00 0.00 29 1018.3
20260503032014 63 218 7.0 13.0 0.00 0.00 0.00 29 1018.2
20260503031556 63 188 4.3 8.7 0.00 0.00 0.00 30 1018.2
20260503031013 63 199 7.8 13.0 0.00 0.00 0.00 29 1018.2
20260503030555 63 187 9.6 13.9 0.00 0.00 0.00 30 1018.3
20260503030055 62 194 6.1 7.8 0.00 0.00 0.00 30 1018.0
20260503025555 63 221 5.2 9.6 0.00 0.00 0.00 30 1018.0
20260503025013 63 205 5.2 10.4 0.00 0.00 0.00 30 1018.0
20260503024555 63 197 7.8 11.3 0.00 0.00 0.00 30 1017.9
20260503024055 63 194 6.1 7.8 0.00 0.00 0.00 30 1018.0
20260503023556 64 225 9.6 9.6 0.00 0.00 0.00 30 1018.0
20260503014513 66 194 6.1 10.4 0.00 0.00 0.00 28 1017.9
20260503014013 66 221 4.3 7.8 0.00 0.00 0.00 28 1017.7
20260503013556 67 158 2.6 7.0 0.00 0.00 0.00 28 1017.8
20260503013014 67 195 5.2 13.9 0.00 0.00 0.00 28 1017.7
20260503012556 67 158 3.5 7.0 0.00 0.00 0.00 28 1017.9
20260503012056 67 252 2.6 7.8 0.00 0.00 0.00 28 1018.0
20260503011555 67 196 1.7 7.0 0.00 0.00 0.00 28 1017.9
20260503011013 67 224 7.0 8.7 0.00 0.00 0.00 27 1017.7
20260503010555 67 181 3.5 8.7 0.00 0.00 0.00 27 1017.8
20260503010055 67 156 4.3 9.6 0.00 0.00 0.00 27 1017.8
20260503005555 68 169 7.0 9.6 0.00 0.00 0.00 27 1017.8
20260503005014 68 184 2.6 4.3 0.00 0.00 0.00 27 1017.8
20260503004555 68 216 7.0 7.8 0.00 0.00 0.00 27 1017.8
20260503004056 68 215 4.3 7.0 0.00 0.00 0.00 27 1017.7
20260503003535 68 214 6.1 10.4 0.00 0.00 0.00 26 1017.9
20260503003055 68 175 8.7 12.2 0.00 0.00 0.00 26 1017.8
20260503002555 69 209 4.3 6.1 0.00 0.00 0.00 25 1017.7
20260503002014 70 156 4.3 6.1 0.00 0.00 0.00 25 1017.8
20260503001555 69 126 4.3 6.1 0.00 0.00 0.00 26 1017.6
20260503001056 69 206 4.3 7.8 0.00 0.00 0.00 25 1017.8
20260503000514 69 205 6.1 7.0 0.00 0.00 0.00 25 1017.7
20260503000014 69 128 5.2 5.2 0.00 0.00 0.00 25 1017.7
20260502235556 69 129 9.6 12.2 0.00 0.00 0.00 25 1017.7
20260502235014 69 185 4.3 8.7 0.00 0.00 0.00 25 1017.7
20260502234555 69 227 3.5 6.1 0.00 0.00 0.00 25 1017.8
20260502234056 69 93 6.1 7.0 0.00 0.00 0.00 24 1018.0
20260502233555 69 154 3.5 5.2 0.00 0.00 0.00 24 1017.6
20260502233014 69 137 3.5 7.0 0.00 0.00 0.00 25 1017.7
20260502232555 69 91 4.3 8.7 0.00 0.00 0.00 24 1017.6
20260502231014 70 134 2.6 3.5 0.00 0.00 0.00 24 1017.7
20260502230555 71 129 4.3 4.3 0.00 0.00 0.00 23 1017.7
20260502230056 70 175 2.6 4.3 0.00 0.00 0.00 23 1017.8
20260502224013 71 125 4.3 6.1 0.00 0.00 0.00 23 1017.8
20260502223555 72 120 3.5 5.2 0.00 0.00 0.00 22 1017.9
20260502223056 71 176 1.7 11.3 0.00 0.00 0.00 22 1018.0
20260502222513 73 92 6.1 6.1 0.00 0.00 0.00 21 1018.0
20260502222013 72 101 5.2 8.7 0.00 0.00 0.00 22 1018.0
20260502221556 73 123 4.3 7.0 0.00 0.00 0.00 22 1018.0
20260502215555 70 80 5.2 7.0 0.00 0.00 0.00 22 1018.3
20260502215013 71 63 9.6 9.6 0.00 0.00 0.00 22 1018.2
20260502214555 70 91 3.5 8.7 0.00 0.00 0.00 22 1018.3
20260502214055 70 67 4.3 8.7 0.00 0.00 0.00 22 1018.4
20260502213556 69 115 7.0 13.9 0.00 0.00 0.00 23 1018.5
20260502213013 72 111 3.5 9.6 0.00 0.00 0.00 22 1018.3
20260502212555 72 260 1.7 10.4 0.00 0.00 0.00 22 1018.6
20260502212056 71 31 8.7 13.0 0.00 0.00 0.00 22 1018.7
20260502211555 70 73 10.4 10.4 0.00 0.00 0.00 22 1018.7
20260502211055 71 80 12.2 17.4 0.00 0.00 0.00 22 1018.7
20260502210556 72 93 9.6 11.3 0.00 0.00 0.00 22 1018.8
20260502210013 70 130 2.6 7.8 0.00 0.00 0.00 22 1019.0
20260502205555 69 168 2.6 8.7 0.00 0.00 0.00 23 1018.9
20260502205055 71 71 5.2 10.4 0.00 0.00 0.00 22 1019.2
20260502204514 69 77 6.1 12.2 0.00 0.00 0.00 23 1019.2
20260502204014 69 95 7.0 11.3 0.00 0.00 0.00 23 1019.0